Date,TemperatureHighF,TemperatureAvgF,TemperatureLowF,DewpointHighF,DewpointAvgF,DewpointLowF,HumidityHigh,HumidityAvg,HumidityLow,PressureMaxIn,PressureMinIn,WindSpeedMaxMPH,WindSpeedAvgMPH,GustSpeedMaxMPH,PrecipitationSumIn
2013-1-1,23.0,21.3,20.1,7.1,4.6,2.0,53,48,43,24.75,24.72,0,0,0,0.00
2013-1-2,22.5,19.0,10.4,-3.1,-7.3,-15.9,32,30,29,24.77,24.77,0,0,0,0.00
2013-1-4,27.0,19.4,12.9,5.7,1.0,-4.3,49,44,40,24.69,24.63,8,4,8,0.00
2013-1-5,41.5,25.2,7.0,14.0,5.8,-5.8,60,44,31,24.77,24.66,17,6,17,0.00
2013-1-7,33.6,32.6,31.1,14.6,13.2,12.2,50,44,42,24.33,24.33,8,2,8,0.00
2013-1-9,44.4,33.6,30.7,18.2,16.7,11.1,55,50,29,24.42,24.33,23,13,23,0.00
2013-1-10,41.4,20.8,15.8,20.3,16.7,12.7,91,86,39,24.21,24.18,16,6,16,0.00
2013-1-11,8.6,5.2,2.3,5.6,2.4,-0.4,88,88,88,24.54,24.27,22,8,22,0.00
2013-1-12,20.8,4.9,-4.4,4.4,-4.5,-20.3,88,68,43,24.57,24.51,10,3,10,0.00
2013-1-13,28.6,7.4,-5.1,5.6,-15.3,-26.4,38,34,31,24.60,24.57,8,3,8,0.00
2013-1-14,12.4,10.0,5.5,-8.9,-11.0,-15.1,37,37,37,24.51,24.51,10,5,10,0.00
2013-1-15,23.9,22.2,20.3,14.5,12.4,9.7,72,66,62,24.66,24.66,8,3,8,0.00
2013-1-16,28.2,25.8,24.4,9.9,8.1,5.8,51,47,42,24.80,24.77,8,3,8,0.00
2013-1-20,18.3,18.3,18.3,10.2,10.2,10.2,70,70,70,24.75,24.75,3,0,3,0.00
2013-1-24,35.4,35.1,34.9,15.5,15.1,13.2,44,43,43,24.63,24.63,8,3,8,0.00
2013-1-26,39.2,32.0,27.9,20.4,18.3,15.1,64,57,45,24.36,24.30,8,3,8,0.00
2013-1-27,34.2,26.8,22.3,25.9,20.9,11.3,91,79,59,24.39,24.36,11,6,11,0.00
2013-1-31,27.1,23.5,20.3,17.4,13.7,10.1,75,66,55,24.60,24.57,6,2,6,0.00
2013-2-1,34.5,26.0,21.9,18.8,14.7,10.2,70,62,53,24.60,24.54,5,2,5,0.00
2013-2-4,40.8,36.0,28.8,17.5,15.5,12.7,51,43,38,24.48,24.42,5,5,5,0.00
2013-2-6,25.5,20.4,14.5,7.8,4.6,-0.9,55,50,46,24.60,24.54,5,2,5,0.00
2013-2-7,25.0,23.9,21.9,5.0,4.3,2.9,44,42,42,24.48,24.48,6,4,6,0.00
2013-2-9,33.3,26.7,23.4,22.0,17.9,12.4,91,71,42,24.42,24.36,18,5,18,0.00
2013-2-13,33.3,30.9,27.9,19.4,16.8,14.9,68,56,49,24.60,24.54,0,0,0,0.00
2013-2-14,19.8,19.1,19.0,14.7,13.9,13.3,81,80,78,24.75,24.75,0,0,0,0.00
2013-2-15,53.6,39.5,21.2,21.7,14.3,7.9,70,37,26,24.80,24.72,6,3,6,0.00
2013-3-4,17.6,12.9,6.8,1.8,-2.0,-7.3,54,51,46,24.77,24.75,4,3,4,0.00
2013-3-10,52.3,43.9,33.8,19.3,16.5,13.2,48,33,26,24.72,24.60,8,8,8,0.00
2013-3-13,45.3,40.6,38.1,22.8,21.5,19.3,51,46,37,24.72,24.69,0,0,0,0.00
2013-3-16,44.8,39.7,37.0,20.8,19.8,17.6,50,45,37,24.42,24.36,0,0,0,0.00
2013-3-17,38.3,33.0,28.4,24.5,15.7,11.2,85,50,40,24.18,24.12,21,9,21,0.00
2013-4-14,43.9,29.3,19.2,19.9,9.1,2.6,82,43,31,24.42,24.24,0,0,0,0.00
2013-4-22,16.9,13.8,10.8,2.4,0.4,-1.8,56,54,50,24.83,24.83,0,0,0,0.00
2013-4-29,37.9,35.9,33.3,33.2,30.8,28.0,86,82,77,24.36,24.30,0,0,0,0.04
2013-5-19,40.6,40.0,39.6,38.2,37.6,36.8,92,91,89,24.66,24.63,0,0,0,2.65
2013-6-4,42.8,42.0,38.7,35.3,34.4,31.2,76,74,73,24.83,24.80,3,0,3,0.00
2013-6-5,38.1,32.9,29.8,32.5,30.0,27.7,98,89,76,24.83,24.77,4,2,4,0.00
2013-6-7,67.3,67.3,67.3,44.0,44.0,44.0,43,43,43,24.60,24.60,8,6,8,0.00
2013-6-13,50.2,49.3,48.7,48.2,47.0,45.5,93,92,89,24.63,24.60,10,5,10,0.46
2013-6-14,67.5,54.2,39.9,45.5,33.7,21.8,93,52,23,24.69,24.57,24,5,24,0.00
2013-6-15,69.8,64.0,50.5,32.5,30.1,23.2,35,28,23,24.72,24.66,11,4,11,0.00
2013-6-29,58.5,58.4,58.3,54.0,53.8,53.5,85,84,84,24.89,24.86,4,2,4,0.00
2013-7-4,65.8,62.0,60.3,53.0,50.0,46.6,75,65,52,30.59,24.54,29,10,29,0.12
2013-7-5,76.5,65.4,59.7,56.5,50.7,43.2,73,59,42,30.39,30.27,12,4,12,0.17
2013-7-6,83.5,66.4,50.7,54.3,47.8,42.6,93,56,27,30.44,30.33,10,3,10,0.00
2013-7-7,65.7,62.2,58.8,50.6,45.4,39.9,73,55,40,30.44,30.39,15,4,15,0.12
2013-7-17,69.1,63.7,61.3,55.5,51.4,42.3,78,65,40,30.59,30.53,20,4,20,0.09
2013-7-18,61.0,56.7,52.5,51.6,49.2,45.9,85,76,70,30.59,30.56,7,3,7,0.00
2013-8-1,62.6,59.2,55.0,52.2,48.2,46.5,90,68,58,30.44,30.41,15,6,15,0.04
2013-8-2,55.6,54.1,53.1,52.6,51.9,51.3,95,92,87,30.44,30.39,15,3,15,0.00
2013-8-5,74.5,71.1,66.2,37.4,35.2,33.7,31,27,23,30.44,30.41,19,6,19,0.00
2013-8-20,65.5,65.3,65.1,30.6,30.5,30.3,27,27,27,30.44,30.44,6,5,6,0.00
2013-9-1,62.4,62.0,61.7,35.1,34.8,34.3,36,36,36,30.50,30.47,6,4,6,0.00
2013-9-6,69.3,67.7,66.7,46.4,45.0,42.6,47,44,38,30.50,30.50,13,6,13,0.00
2013-10-17,33.6,33.6,33.6,23.9,23.7,23.1,67,66,66,30.50,30.47,20,9,20,0.00
2013-10-31,40.3,38.4,36.0,18.0,17.3,16.7,46,42,39,30.27,30.24,0,0,0,0.00
2013-11-1,49.6,37.8,32.5,18.7,15.8,14.0,48,41,29,30.47,30.47,0,0,0,0.00
2013-11-7,42.3,38.3,37.4,26.6,22.6,21.0,57,53,50,30.18,30.15,11,3,11,0.00
2013-11-8,54.9,48.3,41.2,27.0,20.3,16.3,41,33,29,30.27,30.24,8,3,8,0.04
2013-11-20,4.8,4.7,4.6,1.3,1.2,1.1,85,85,85,32.78,30.53,4,2,4,0.00
2013-11-22,42.6,37.1,32.4,11.8,6.7,0.8,30,28,25,33.01,29.97,12,5,12,0.00
2013-11-23,33.8,27.8,16.3,11.4,8.0,1.0,54,43,35,29.94,29.76,20,7,20,0.00
2013-11-30,51.8,40.4,32.2,22.2,19.5,14.8,57,44,30,29.68,29.62,13,4,13,0.00
2013-12-1,39.0,38.1,36.3,21.8,21.1,19.9,52,50,48,29.35,29.35,6,2,6,0.00
2013-12-2,24.6,22.6,21.2,23.1,20.3,18.7,94,91,88,29.29,29.26,17,8,17,0.00
2013-12-3,4.1,0.9,-0.8,0.3,-2.8,-4.4,84,84,84,29.53,29.47,16,10,16,0.00
2013-12-5,-11.4,-11.6,-11.6,-32.1,-32.1,-32.1,34,34,34,29.59,29.59,7,6,7,0.00
2013-12-6,9.3,-7.8,-24.9,-13.4,-28.7,-44.0,34,34,34,29.68,29.65,6,3,6,0.00
2013-12-7,-6.0,-16.7,-26.3,-27.2,-36.7,-45.3,34,34,34,29.53,29.41,7,3,7,0.00
2013-12-8,16.9,0.8,-11.4,-1.8,-19.4,-31.9,49,37,34,29.44,29.35,6,3,7,0.00
2013-12-10,14.2,7.6,0.3,9.0,2.7,-4.4,80,80,76,29.71,29.68,6,3,6,0.00
2013-12-11,19.6,12.3,2.5,9.4,2.2,-3.0,80,64,50,29.71,29.68,8,3,8,0.00
2013-12-12,31.1,27.8,22.8,15.1,11.7,6.7,60,50,44,29.53,29.50,9,5,9,0.00
2013-12-13,51.3,32.3,19.6,21.4,12.4,5.3,64,44,28,29.68,29.53,12,2,12,0.00
2013-12-14,52.3,40.4,22.3,19.1,14.6,10.9,61,35,27,29.68,29.65,8,2,8,0.00
2013-12-19,7.0,3.0,-0.9,-6.5,-10.3,-13.9,53,53,53,29.50,29.44,12,4,12,0.00
2013-12-23,39.2,33.2,27.1,25.9,18.7,13.6,67,55,42,29.53,29.44,14,3,14,0.00
2013-12-25,25.2,23.9,22.6,6.2,5.1,3.4,44,44,43,29.68,29.65,8,3,8,0.00
2013-12-26,41.0,38.1,34.5,23.0,21.8,20.0,55,52,47,29.68,29.65,8,4,8,0.00